Torna al catalogo

KUIPER-00110

AttivoComunicazioniLEO
NORAD 65148·PAYLOAD·🇺🇸 United States

Lanciato Aug 11, 2025 da Cape Canaveral Space Force Station

Loading…

Prossimi Passaggi (prossime 24 ore)

TLE

AggiornatoSource: CelesTrak SupGP

Epoca: Sep 14, 2026, 21:24 UTC

1 65148C 25171S   26257.89214120  .00006880  00000+0  90059-3 0  2573
2 65148  51.9001  51.4800 0000587 113.6788 103.2323 14.79927388    17

Traccia KUIPER-00110 in tempo reale con AllMySat

Download on the App Store